Regional Weather Roundup
Issued by NWS

Home | Current Version | Previous Version | Graphics & Text | Print | Product List | Glossary On
Versions: 1 2 3 4 5 6 7 8 9 10 11 12 13 14 15 16 17 18 19 20 21 22 23 24 25 26 27 28 29 30 31 32 33 34 35 36 37 38 39 40 41 42 43 44 45 46 47 48 49 50
000
ASUS43 KDMX 051104
RWRIA

WEATHER ROUNDUP FOR IOWA
NATIONAL WEATHER SERVICE DES MOINES IA
  ISSUED BY NWS QUAD CITIES IA IL
500 AM CST THU MAR 05 2015

NOTE: "FAIR" INDICATES FEW OR NO CLOUDS BELOW 12,000 FEET WITH NO
SIGNIFICANT WEATHER AND/OR OBSTRUCTIONS TO VISIBILITY.

* - THESE STATIONS ARE NOT NWS STATIONS...THUS NOT UNDER NWS
QUALITY CONTROL.  THEY ALSO DO NOT REPORT WEATHER SUCH
AS PRECIPITATION OR FOG.

IAZ001>003-012>014-020>022-031>034-043>046-051200-
   NORTHWEST IOWA

CITY           SKY/WX    TMP DP  RH WIND       PRES   REMARKS
CARROLL *      PTCLDY    -4 -11  71 W5        30.48R WCI -15
CHEROKEE *     SUNNY     -9 -13  83 CALM      30.47R
DENNISON *     CLEAR     -4  -9  77 CALM      30.46R
LE MARS *      CLEAR     -6  -9  84 CALM      30.49R
ORANGE CITY *  CLEAR     -2  -9  71 CALM      30.44R
SHELDON *      CLEAR     -9 -15  77 CALM      30.44R
SIOUX CITY     CLEAR     -1  -6  79 CALM      30.50R
SPENCER        FAIR      -9 -14  78 W6        30.45R WCI -22
STORM LAKE *   CLEAR     -6 -13  71 NW7       30.44S WCI -20
$$

IAZ055>058-069>071-079>083-090>094-051200-
   SOUTHWEST IOWA

CITY           SKY/WX    TMP DP  RH WIND       PRES   REMARKS
ATLANTIC *     CLEAR      0  -8  71 NW7       30.49R WCI -13
AUDUBON *      CLEAR     -2  -9  71 CALM      30.47R
CLARINDA *     CLEAR      1  -2  85 CALM      30.53R
COUNCIL BLFS * CLEAR      5  -6  61 CALM      30.48R
CRESTON *      CLEAR      0  -8  71 NW6       30.47R WCI -12
HARLAN *       CLEAR      0  -6  78 CALM      30.52R
LAMONI         CLEAR      4  -4  69 NW8       30.47R WCI  -9
RED OAK *      FAIR       1  -4  78 CALM      30.51S
SHENANDOAH *   CLEAR      1  -4  78 CALM      30.53R
$$

IAZ047>049-059>061-072>074-084-051200-
   CENTRAL IOWA

CITY           SKY/WX    TMP DP  RH WIND       PRES   REMARKS
AMES           CLEAR     -4 -10  75 W6        30.48R WCI -16
ANKENY *       CLEAR      1  -8  66 N6        30.50R WCI -10
BOONE *        CLEAR     -2  -9  71 NW6       30.45R WCI -14
CHARITON *     CLOUDY     5  -4  66 NE7       30.47R WCI  -7
DES MOINES     PTCLDY     4  -7  60 N6        30.49R WCI  -7
GRINNELL *     SUNNY     -4  -8  81 NW5       30.46R WCI -15
KNOXVILLE *    MOCLDY     1  -9  60 N7        30.47R WCI -11
MARSHALLTOWN   CLEAR     -8 -12  83 NW6       30.46R WCI -21
NEWTON *       CLEAR      0  -9  65 N7        30.48R WCI -13
PELLA *        CLEAR      0  -4  83 NW5       30.50R WCI -10
PERRY *          N/A     -1  -6  82 CALM      30.48S
$$

IAZ004>006-015-016-023>025-035-036-051200-
   NORTH CENTRAL IOWA

CITY           SKY/WX    TMP DP  RH WIND       PRES   REMARKS
ALGONA *       CLEAR     -2  -2 100 NW7       30.45S WCI -16
CLARION *      CLEAR     -4  -9  77 NW5       30.46R WCI -15
ESTHERVILLE    FAIR      -7 -12  79 W6        30.43R WCI -20
FORT DODGE *   CLEAR     -4 -11  71 CALM      30.47R
MASON CITY     CLEAR    -11 -16  78 W6        30.45R WCI -25
FOREST CITY *  FAIR      -6 -15  65 NW6       30.43R WCI -18
WEBSTER CITY * CLEAR     -4 -11  71 NW7       30.45R WCI -18
IOWA FALLS *   FAIR     -10 -15  78 NW3       30.45S
$$

IAZ007>011-017>019-026>030-037>042-050>054-066-051200-
   NORTHEAST IOWA

CITY           SKY/WX    TMP DP  RH WIND       PRES   REMARKS
CEDAR RAPIDS   CLEAR     -6 -11  79 NW8       30.44R WCI -21
CHARLES CITY * CLEAR    -11 -17  77 NW6       30.44R WCI -25
CLINTON *      CLEAR     -8 -18  59 NW7       30.45R WCI -22
DECORAH *      CLEAR     -6 -13  71 W5        30.40R WCI -17
DUBUQUE        CLEAR     -4 -11  72 N8        30.39R WCI -19
MONTICELLO *   CLEAR     -8 -15  71 CALM      30.44R
OELWEIN *      CLEAR    -13 -20  70 NW8       30.43R WCI -30
WATERLOO       CLEAR     -7 -12  79 NW5       30.46R WCI -18
$$

IAZ064-065-067-068-078-051200-
   EAST CENTRAL IOWA

CITY           SKY/WX    TMP DP  RH WIND       PRES   REMARKS
DAVENPORT      CLEAR     -5 -12  72 W9        30.45R WCI -22
IOWA CITY      CLEAR      1  -7  68 NW7       30.49R WCI -12
MT. PLEASANT * PTCLDY     3  -5  68 N7        30.48R WCI  -9
MUSCATINE *    CLEAR      3  -4  72 NW9       30.50R WCI -11
QUAD CITIES    CLEAR      3  -6  66 NW7       30.46R WCI  -9
$$

IAZ062-063-075>077-085>089-095>099-051200-
   SOUTHEAST IOWA

CITY           SKY/WX    TMP DP  RH WIND       PRES   REMARKS
BURLINGTON     CLEAR      5  -4  66 N8        30.47R WCI  -8
FAIRFIELD *    CLOUDY     3  -6  66 NW7       30.48R WCI  -9
FORT MADISON * PTCLDY     3  -2  78 N7        30.48R WCI  -9
KEOKUK *       CLEAR      9   1  72 N9        30.46S WCI  -5
OSKALOOSA *    PTSUNNY    3  -4  72 N6        30.49R WCI  -8
CENTERVILLE *  FLURRIES   7   1  78 N9        30.47R WCI  -7
OTTUMWA        PTCLDY     2  -6  69 N6        30.48R WCI  -9
WASHINGTON *   PTCLDY     3  -4  72 NW8       30.48R WCI -10
$$

ABBREVIATIONS USED IN REMARKS
   TC - TEMPERATURES IN CELSIUS
  WCI - WIND CHILL INDEX
   HX - HEAT INDEX
  VSB - VISIBILITY
$$


USA.gov is the U.S. government's official web portal to all federal, state and local government web resources and services.